When you browse on this site, cookies collect data to enhance your experience and personalize the content and advertising you see.
Visit our Privacy Policy to learn more. By continuing to use the site, you agree to this use of cookies and data.

Hourly Weather Rassoha

Today, 20 September, Sunday

Time Temperature Precipitation Wind Pressure Humidity
00:00 +6°C° 0 mm 4 mps 739 mmHg 93%
01:00 +6°C° 0 mm 4 mps 739 mmHg 94%
02:00 +5°C° 0 mm 4 mps 739 mmHg 96%
03:00 +5°C° 0 mm 4 mps 739 mmHg 96%
04:00 +5°C° 0 mm 4 mps 739 mmHg 96%
05:00 +4°C° 0 mm 4 mps 739 mmHg 96%
06:00 +5°C° 0 mm 5 mps 740 mmHg 89%
07:00 +6°C° 0 mm 5 mps 740 mmHg 82%
08:00 +7°C° 0 mm 6 mps 740 mmHg 75%
09:00 +8°C° 0 mm 6 mps 741 mmHg 70%
10:00 +10°C° 0 mm 6 mps 741 mmHg 65%
11:00 +11°C° 0 mm 6 mps 742 mmHg 60%
12:00 +11°C° 0 mm 6 mps 742 mmHg 59%
13:00 +11°C° 0 mm 6 mps 742 mmHg 57%
14:00 +11°C° 0 mm 6 mps 742 mmHg 56%
15:00 +12°C° 0 mm 5 mps 742 mmHg 61%
16:00 +11°C° 0 mm 4 mps 742 mmHg 65%
17:00 +10°C° 0 mm 3 mps 742 mmHg 70%
18:00 +9°C° 0 mm 3 mps 743 mmHg 74%
19:00 +8°C° 0 mm 3 mps 743 mmHg 77%
20:00 +7°C° 0 mm 2 mps 743 mmHg 81%
21:00 +5°C° 0 mm 3 mps 743 mmHg 83%
22:00 +5°C° 0 mm 3 mps 743 mmHg 85%
23:00 +5°C° 0 mm 3 mps 743 mmHg 86%

Tomorrow, 21 September, Monday

Time Temperature Precipitation Wind Pressure Humidity
00:00 +5°C° 0 mm 3 mps 743 mmHg 88%
01:00 +4°C° 0 mm 3 mps 744 mmHg 90%
02:00 +4°C° 0 mm 3 mps 744 mmHg 91%
03:00 +4°C° 0 mm 3 mps 743 mmHg 92%
04:00 +4°C° 0 mm 3 mps 743 mmHg 93%
05:00 +4°C° 0 mm 3 mps 743 mmHg 94%
06:00 +5°C° 0 mm 4 mps 743 mmHg 89%
07:00 +7°C° 0 mm 5 mps 743 mmHg 83%
08:00 +8°C° 0 mm 5 mps 743 mmHg 78%
09:00 +9°C° 0 mm 6 mps 743 mmHg 73%
10:00 +10°C° 0 mm 6 mps 743 mmHg 69%
11:00 +13°C° 0 mm 6 mps 743 mmHg 64%
12:00 +13°C° 0 mm 6 mps 743 mmHg 62%
13:00 +14°C° 0 mm 6 mps 743 mmHg 61%
14:00 +14°C° 0 mm 6 mps 743 mmHg 59%
15:00 +13°C° 0 mm 5 mps 742 mmHg 64%
16:00 +13°C° 0 mm 4 mps 742 mmHg 68%
17:00 +12°C° 0 mm 3 mps 742 mmHg 73%
18:00 +11°C° 0 mm 3 mps 742 mmHg 76%
19:00 +10°C° 0 mm 3 mps 742 mmHg 79%
20:00 +9°C° 0 mm 3 mps 742 mmHg 82%
21:00 +9°C° 0 mm 3 mps 742 mmHg 84%
22:00 +9°C° 0 mm 3 mps 742 mmHg 86%
23:00 +8°C° 0 mm 3 mps 742 mmHg 88%

Day after tomorrow, 22 September, Tuesday

Time Temperature Precipitation Wind Pressure Humidity
00:00 +8°C° 0 mm 3 mps 742 mmHg 90%
01:00 +8°C° 0 mm 3 mps 742 mmHg 92%
02:00 +8°C° 0 mm 3 mps 742 mmHg 93%
03:00 +7°C° 0 mm 4 mps 742 mmHg 94%
04:00 +7°C° 0 mm 4 mps 742 mmHg 94%
05:00 +7°C° 0 mm 4 mps 742 mmHg 94%
06:00 +8°C° 0 mm 4 mps 742 mmHg 89%
07:00 +10°C° 0 mm 5 mps 742 mmHg 84%
08:00 +11°C° 0 mm 6 mps 743 mmHg 78%
09:00 +13°C° 0 mm 6 mps 743 mmHg 72%
10:00 +15°C° 0 mm 6 mps 743 mmHg 66%
11:00 +17°C° 0 mm 6 mps 743 mmHg 60%
12:00 +17°C° 0 mm 7 mps 742 mmHg 59%
13:00 +18°C° 0 mm 7 mps 742 mmHg 57%
14:00 +18°C° 0 mm 7 mps 742 mmHg 56%
15:00 +17°C° 0 mm 6 mps 742 mmHg 60%
16:00 +16°C° 0 mm 5 mps 742 mmHg 65%
17:00 +15°C° 0 mm 4 mps 741 mmHg 69%
18:00 +14°C° 0 mm 4 mps 742 mmHg 73%
19:00 +13°C° 0 mm 4 mps 742 mmHg 76%
20:00 +12°C° 0 mm 4 mps 742 mmHg 79%
21:00 +12°C° 0 mm 4 mps 742 mmHg 80%
22:00 +11°C° 0 mm 3 mps 742 mmHg 81%
23:00 +11°C° 0 mm 3 mps 742 mmHg 82%

23 September, Wednesday

Time Temperature Precipitation Wind Pressure Humidity
00:00 +11°C° 0 mm 3 mps 742 mmHg 82%
01:00 +10°C° 0 mm 3 mps 742 mmHg 83%
02:00 +10°C° 0 mm 3 mps 742 mmHg 84%
03:00 +10°C° 0 mm 3 mps 742 mmHg 83%
04:00 +10°C° 0 mm 3 mps 742 mmHg 83%
05:00 +9°C° 0 mm 2 mps 742 mmHg 83%
06:00 +12°C° 0 mm 2 mps 742 mmHg 78%
07:00 +12°C° 0 mm 3 mps 742 mmHg 73%
08:00 +13°C° 0 mm 3 mps 743 mmHg 68%
09:00 +16°C° 0 mm 3 mps 743 mmHg 64%
10:00 +18°C° 0 mm 3 mps 743 mmHg 59%
11:00 +20°C° 0 mm 3 mps 743 mmHg 54%
12:00 +21°C° 0 mm 3 mps 743 mmHg 53%
13:00 +21°C° 0 mm 3 mps 742 mmHg 51%
14:00 +22°C° 0 mm 3 mps 742 mmHg 50%
15:00 +20°C° 0 mm 3 mps 742 mmHg 54%
16:00 +19°C° 0 mm 2 mps 742 mmHg 58%
17:00 +18°C° 0 mm 2 mps 741 mmHg 63%
18:00 +17°C° 0 mm 2 mps 742 mmHg 63%
19:00 +16°C° 0 mm 2 mps 742 mmHg 64%
20:00 +15°C° 0 mm 2 mps 742 mmHg 64%
21:00 +14°C° 0 mm 2 mps 742 mmHg 64%
22:00 +14°C° 0 mm 2 mps 742 mmHg 64%
23:00 +13°C° 0 mm 2 mps 742 mmHg 64%

24 September, Thursday

Time Temperature Precipitation Wind Pressure Humidity
00:00 +13°C° 0 mm 2 mps 742 mmHg 64%
01:00 +13°C° 0 mm 2 mps 742 mmHg 64%
02:00 +13°C° 0 mm 2 mps 742 mmHg 64%
03:00 +12°C° 0 mm 2 mps 742 mmHg 65%
04:00 +12°C° 0 mm 2 mps 742 mmHg 65%
05:00 +12°C° 0 mm 2 mps 742 mmHg 65%
06:00 +13°C° 0 mm 2 mps 742 mmHg 62%
07:00 +13°C° 0 mm 3 mps 742 mmHg 60%
08:00 +16°C° 0 mm 3 mps 742 mmHg 58%
09:00 +17°C° 0 mm 3 mps 743 mmHg 54%
10:00 +19°C° 0 mm 3 mps 743 mmHg 50%
11:00 +21°C° 0 mm 3 mps 743 mmHg 46%
12:00 +21°C° 0 mm 3 mps 743 mmHg 45%
13:00 +22°C° 0 mm 3 mps 743 mmHg 43%
14:00 +22°C° 0 mm 3 mps 742 mmHg 42%
15:00 +21°C° 0 mm 3 mps 742 mmHg 46%
16:00 +19°C° 0 mm 2 mps 742 mmHg 51%
17:00 +18°C° 0 mm 2 mps 742 mmHg 56%
18:00 +17°C° 0 mm 2 mps 742 mmHg 56%
19:00 +16°C° 0 mm 2 mps 742 mmHg 57%
20:00 +15°C° 0 mm 2 mps 742 mmHg 58%
21:00 +15°C° 0 mm 2 mps 742 mmHg 58%
22:00 +14°C° 0 mm 2 mps 742 mmHg 58%
23:00 +14°C° 0 mm 2 mps 742 mmHg 58%

25 September, Friday

Time Temperature Precipitation Wind Pressure Humidity
00:00 +14°C° 0 mm 2 mps 742 mmHg 58%
01:00 +14°C° 0 mm 2 mps 742 mmHg 58%
02:00 +14°C° 0 mm 2 mps 742 mmHg 58%
03:00 +13°C° 0 mm 2 mps 742 mmHg 58%
04:00 +12°C° 0 mm 3 mps 742 mmHg 57%
05:00 +12°C° 0 mm 3 mps 742 mmHg 57%
06:00 +13°C° 0 mm 3 mps 742 mmHg 56%
07:00 +14°C° 0 mm 3 mps 742 mmHg 54%
08:00 +16°C° 0 mm 3 mps 742 mmHg 53%
09:00 +17°C° 0 mm 3 mps 742 mmHg 51%
10:00 +19°C° 0 mm 4 mps 742 mmHg 48%
11:00 +20°C° 0 mm 4 mps 742 mmHg 45%
12:00 +21°C° 0 mm 4 mps 742 mmHg 44%
13:00 +22°C° 0 mm 4 mps 742 mmHg 44%
14:00 +22°C° 0 mm 4 mps 741 mmHg 43%
15:00 +21°C° 0 mm 4 mps 741 mmHg 47%
16:00 +19°C° 0 mm 4 mps 741 mmHg 52%
17:00 +18°C° 0 mm 4 mps 741 mmHg 56%
18:00 +17°C° 0 mm 4 mps 741 mmHg 55%
19:00 +17°C° 0 mm 4 mps 741 mmHg 55%
20:00 +15°C° 0 mm 5 mps 741 mmHg 54%
21:00 +15°C° 0 mm 5 mps 740 mmHg 54%
22:00 +15°C° 0 mm 5 mps 740 mmHg 54%
23:00 +15°C° 0 mm 5 mps 740 mmHg 54%
Show more